Glens Falls, NY

7:37 PM EST on December 15, 2019 (GMT -0500)
Bennett Memorial

Weather History for KGFL - November, 2019

Change the Weather History Date:

Wednesday, November 20, 2019

  Actual Average Record
Temperature  
Mean Temperature 33 °F 36 °F  
Max Temperature 35 °F 45 °F 70 °F (1991)
Min Temperature 31 °F 26 °F 5 °F (1933)
Degree Days  
Heating Degree Days 32 30  
Month to date heating degree days 660 526  
Since 1 July heating degree days 1351 1381  
Cooling Degree Days 0 0  
Month to date cooling degree days 0 0  
Year to date cooling degree days 416 352  
Moisture  
Dew Point 31 °F    
Average Humidity 89    
Maximum Humidity 96    
Minimum Humidity 82    
Precipitation  
Precipitation 0.06 in 0.11 in 2.10 in (1897)
Month to date precipitation 1.64 2.20  
Year to date precipitation 40.34 34.90  
Sea Level Pressure  
Sea Level Pressure 30.01 in    
Wind  
Wind Speed 2 mph (ENE)    
Max Wind Speed 7 mph    
Max Gust Speed 9 mph    
Visibility 3 miles    
Events Rain , Snow    
T = Trace of Precipitation, MM = Missing Value Source: NWS Daily Summary

Daily Weather History Graph

Daily Weather History Graph

Search for Another Location

Airport or City:

Astronomy

Nov. 20, 2019 Rise Set
Actual Time 6:53 AM EST 4:25 PM EST
Civil Twilight 6:22 AM EST 4:57 PM EST
Nautical Twilight 5:47 AM EST 5:31 PM EST
Astronomical Twilight 5:13 AM EST 6:05 PM EST
Moon No Moon Rise 1:34 PM EST (11/20)
Length of Visible Light 10h 34m
Length of Day
9h 32m
Last Quarter, 41% of the Moon is Illuminated
Nov 20
Last Quarter
Nov 26
New
Dec 4
First Quarter
Dec 12
Full
Dec 18
Last Quarter

Hourly Weather History & Observations

Time (EST) Temp. Windchill Dew Point Humidity Pressure Visibility Wind Dir Wind Speed Gust Speed Precip Events Conditions
12:21 AM 33.1 °F 28.7 °F 32.0 °F 96% 29.90 in 2.0 mi NE 4.6 mph - N/A   Overcast
12:53 AM 33.1 °F - 32.0 °F 96% 29.92 in 2.5 mi Calm Calm - N/A   Overcast
1:24 AM 33.1 °F - 32.0 °F 96% 29.89 in 1.5 mi Calm Calm - N/A   Overcast
1:33 AM 33.1 °F - 32.0 °F 96% 29.89 in 1.5 mi Calm Calm - N/A   Overcast
1:53 AM 32.0 °F - 30.9 °F 96% 29.93 in 2.0 mi Calm Calm - N/A   Overcast
2:07 AM 32.0 °F - 32.0 °F 100% 29.90 in 1.8 mi Calm Calm - N/A   Overcast
2:20 AM 32.0 °F 28.7 °F 30.9 °F 96% 29.90 in 2.0 mi ENE 3.5 mph - N/A   Overcast
2:40 AM 32.0 °F 27.5 °F 30.9 °F 96% 29.91 in 2.5 mi ENE 4.6 mph - N/A   Overcast
2:53 AM 32.0 °F 27.5 °F 30.9 °F 96% 29.94 in 2.5 mi ENE 4.6 mph - N/A   Overcast
3:42 AM 32.0 °F 28.7 °F 30.9 °F 96% 29.91 in 1.8 mi NE 3.5 mph - N/A   Overcast
3:53 AM 32.0 °F 27.5 °F 30.9 °F 96% 29.94 in 2.0 mi NE 4.6 mph - N/A   Overcast
4:13 AM 32.0 °F 27.5 °F 30.9 °F 96% 29.92 in 3.0 mi East 4.6 mph - N/A   Overcast
4:21 AM 32.0 °F 27.5 °F 30.9 °F 96% 29.93 in 3.0 mi East 4.6 mph - N/A   Overcast
4:53 AM 32.0 °F 27.5 °F 30.0 °F 92% 29.96 in 4.0 mi ENE 4.6 mph - N/A   Overcast
5:18 AM 32.0 °F 28.7 °F 30.0 °F 92% 29.93 in 4.0 mi NE 3.5 mph - N/A   Overcast
5:45 AM 32.0 °F 28.7 °F 30.9 °F 96% 29.94 in 4.0 mi ENE 3.5 mph - N/A   Overcast
5:53 AM 32.0 °F 27.5 °F 30.0 °F 92% 29.97 in 4.0 mi ENE 4.6 mph - N/A   Overcast
6:22 AM 32.0 °F 26.4 °F 30.0 °F 92% 29.95 in 7.0 mi NE 5.8 mph - N/A   Overcast
6:53 AM 33.1 °F 28.7 °F 28.9 °F 85% 29.99 in 7.0 mi NE 4.6 mph - N/A   Overcast
7:32 AM 32.0 °F 28.7 °F 28.9 °F 88% 29.97 in 2.0 mi East 3.5 mph - 0.00 in Snow Light Snow
7:39 AM 32.0 °F 28.7 °F 28.9 °F 88% 29.98 in 1.2 mi ENE 3.5 mph - 0.00 in Snow Light Snow
7:53 AM 32.0 °F 28.7 °F 30.0 °F 92% 30.00 in 1.0 mi ENE 3.5 mph - 0.00 in Snow Light Snow
8:17 AM 32.0 °F - 30.0 °F 92% 29.98 in 0.8 mi Calm Calm - 0.01 in Snow Light Snow
8:26 AM 32.0 °F - 30.0 °F 92% 29.98 in 1.0 mi Calm Calm - 0.01 in Snow Light Snow
8:53 AM 32.0 °F - 30.0 °F 92% 30.01 in 1.0 mi Calm Calm - 0.01 in Snow Light Snow
9:16 AM 32.0 °F 28.7 °F 30.0 °F 92% 29.98 in 1.0 mi NNE 3.5 mph - 0.01 in Snow Light Snow
9:44 AM 32.0 °F 27.5 °F 30.0 °F 92% 29.99 in 1.0 mi ENE 4.6 mph - 0.01 in Snow Light Snow
9:53 AM 32.0 °F 27.5 °F 30.0 °F 92% 30.02 in 1.0 mi ENE 4.6 mph - 0.01 in Snow Light Snow
10:42 AM 33.1 °F 28.7 °F 30.9 °F 92% 29.99 in 1.5 mi East 4.6 mph - 0.00 in Snow Light Snow
10:53 AM 33.1 °F 28.7 °F 30.9 °F 92% 30.02 in 1.5 mi ENE 4.6 mph - 0.00 in Snow Light Snow
11:15 AM 33.1 °F 28.7 °F 30.9 °F 92% 29.99 in 2.0 mi East 4.6 mph - 0.01 in Snow Light Snow
11:20 AM 33.1 °F 28.7 °F 30.9 °F 92% 29.99 in 1.5 mi East 4.6 mph - 0.01 in Snow Light Snow
11:36 AM 33.1 °F - 30.9 °F 92% 29.99 in 0.8 mi Calm Calm - 0.01 in Snow Light Snow
11:53 AM 33.1 °F - 30.9 °F 92% 30.02 in 1.0 mi Calm Calm - 0.01 in Snow Light Snow
12:32 PM 33.1 °F - 30.9 °F 92% 30.00 in 0.8 mi Calm Calm - 0.01 in Snow Light Snow
12:53 PM 33.1 °F - 32.0 °F 96% 30.03 in 1.0 mi Calm Calm - 0.02 in Snow Light Snow
1:17 PM 33.1 °F - 30.9 °F 92% 30.00 in 2.0 mi Calm Calm - 0.01 in Snow Light Snow
1:26 PM 34.0 °F - 32.0 °F 92% 30.00 in 3.0 mi Calm Calm - 0.01 in Snow Light Snow
1:35 PM 34.0 °F - 32.0 °F 92% 30.00 in 3.0 mi Calm Calm - 0.01 in Snow Light Snow
1:45 PM 34.0 °F - 32.0 °F 92% 30.00 in 4.0 mi Calm Calm - 0.01 in Snow Light Snow
1:53 PM 34.0 °F - 32.0 °F 92% 30.03 in 4.0 mi Calm Calm - 0.01 in   Overcast
2:10 PM 34.0 °F 31.0 °F 32.0 °F 92% 30.00 in 7.0 mi East 3.5 mph - 0.00 in   Overcast
2:53 PM 34.0 °F 31.0 °F 32.0 °F 92% 30.04 in 7.0 mi Variable 3.5 mph - 0.00 in   Overcast
3:38 PM 34.0 °F 31.0 °F 32.0 °F 92% 30.03 in 5.0 mi ENE 3.5 mph - 0.00 in Rain Light Rain
3:53 PM 34.0 °F 28.8 °F 32.0 °F 92% 30.06 in 5.0 mi East 5.8 mph - 0.00 in   Overcast
4:47 PM 33.8 °F - 32.0 °F 93% 30.05 in 7.0 mi Calm Calm - 0.00 in   Overcast
4:53 PM 33.1 °F 30.0 °F 30.9 °F 92% 30.08 in 8.0 mi ENE 3.5 mph - 0.00 in   Overcast
5:15 PM 33.1 °F - 30.9 °F 92% 30.05 in 6.0 mi Calm Calm - N/A   Overcast
5:53 PM 33.1 °F - 30.9 °F 92% 30.09 in 4.0 mi Calm Calm - 0.00 in Snow Light Snow
6:53 PM 32.0 °F - 30.9 °F 96% 30.12 in 3.0 mi Calm Calm - 0.00 in   Overcast
7:04 PM 33.1 °F - 30.9 °F 92% 30.10 in 4.0 mi Calm Calm - N/A   Overcast
7:27 PM 33.1 °F - 32.0 °F 96% 30.10 in 4.0 mi Calm Calm - N/A   Overcast
7:53 PM 32.0 °F - 30.9 °F 96% 30.13 in 3.0 mi Calm Calm - N/A   Overcast
8:22 PM 33.1 °F 30.0 °F 30.9 °F 92% 30.11 in 6.0 mi NE 3.5 mph - N/A   Overcast
8:53 PM 33.1 °F - 32.0 °F 96% 30.15 in 5.0 mi Calm Calm - N/A   Overcast
9:03 PM 33.1 °F - 32.0 °F 96% 30.12 in 5.0 mi Calm Calm - N/A   Overcast
9:53 PM 33.1 °F - 30.9 °F 92% 30.16 in 5.0 mi Calm Calm - N/A   Overcast
10:26 PM 33.1 °F - 30.9 °F 92% 30.13 in 5.0 mi Calm Calm - N/A   Overcast
10:53 PM 33.1 °F - 32.0 °F 96% 30.16 in 5.0 mi Calm Calm - N/A   Overcast
11:13 PM 32.0 °F - 30.9 °F 96% 30.14 in 2.5 mi Calm Calm - N/A   Overcast
11:25 PM 32.0 °F - 30.9 °F 96% 30.14 in 3.0 mi Calm Calm - N/A   Overcast
11:42 PM 32.0 °F - 30.9 °F 96% 30.14 in 2.5 mi Calm Calm - N/A   Overcast
11:53 PM 32.0 °F - 30.9 °F 96% 30.17 in 4.0 mi Calm Calm - N/A   Overcast